When you browse on this site, cookies collect data to enhance your experience and personalize the content and advertising you see.
Visit our Privacy Policy to learn more. By continuing to use the site, you agree to this use of cookies and data.
  • In Hungary
  • List of Countries
  • For 7 days
  • Water Temperature
  • Weather Map
  • News
  • Weather Widgets
  • user-avatar
    Login

    Hourly Weather Cochabamba

    Today, 4 June, Thursday

    Time Temperature Precipitation Wind Pressure Humidity
    00:00 +12°C° 0 mm 1 mps 554 mmHg 72%
    01:00 +12°C° 0 mm 1 mps 554 mmHg 72%
    02:00 +12°C° 0 mm 1 mps 553 mmHg 73%
    03:00 +12°C° 0.1 mm 1 mps 553 mmHg 74%
    04:00 +12°C° 0.1 mm 1 mps 553 mmHg 75%
    05:00 +12°C° 0.1 mm 1 mps 553 mmHg 76%
    06:00 +12°C° 1 mm 1 mps 554 mmHg 77%
    07:00 +12°C° 1 mm 1 mps 554 mmHg 78%
    08:00 +12°C° 1 mm 1 mps 555 mmHg 79%
    09:00 +13°C° 0.5 mm 1 mps 555 mmHg 77%
    10:00 +14°C° 0.5 mm 1 mps 555 mmHg 75%
    11:00 +15°C° 0.5 mm 1 mps 556 mmHg 72%
    12:00 +16°C° 0.2 mm 1 mps 555 mmHg 69%
    13:00 +17°C° 0.2 mm 2 mps 555 mmHg 66%
    14:00 +17°C° 0.2 mm 2 mps 555 mmHg 63%
    15:00 +17°C° 0.1 mm 2 mps 555 mmHg 65%
    16:00 +17°C° 0.1 mm 2 mps 555 mmHg 67%
    17:00 +16°C° 0.1 mm 2 mps 554 mmHg 69%
    18:00 +15°C° 0.1 mm 2 mps 554 mmHg 73%
    19:00 +14°C° 0.1 mm 2 mps 554 mmHg 78%
    20:00 +13°C° 0.1 mm 2 mps 554 mmHg 82%
    21:00 +13°C° 0.1 mm 2 mps 554 mmHg 82%
    22:00 +13°C° 0.1 mm 2 mps 555 mmHg 82%
    23:00 +13°C° 0.1 mm 2 mps 555 mmHg 82%

    Tomorrow, 5 June, Friday

    Time Temperature Precipitation Wind Pressure Humidity
    00:00 +13°C° 0.1 mm 1 mps 555 mmHg 82%
    01:00 +13°C° 0.1 mm 1 mps 555 mmHg 82%
    02:00 +13°C° 0.1 mm 1 mps 555 mmHg 82%
    03:00 +13°C° 0 mm 1 mps 555 mmHg 83%
    04:00 +12°C° 0 mm 1 mps 554 mmHg 83%
    05:00 +11°C° 0 mm 1 mps 554 mmHg 84%
    06:00 +12°C° 0 mm 1 mps 554 mmHg 79%
    07:00 +13°C° 0 mm 1 mps 555 mmHg 74%
    08:00 +14°C° 0 mm 1 mps 556 mmHg 69%
    09:00 +15°C° 0 mm 1 mps 557 mmHg 65%
    10:00 +18°C° 0 mm 1 mps 557 mmHg 61%
    11:00 +19°C° 0 mm 1 mps 558 mmHg 57%
    12:00 +20°C° 0.2 mm 1 mps 558 mmHg 57%
    13:00 +19°C° 0.2 mm 2 mps 557 mmHg 57%
    14:00 +20°C° 0.2 mm 2 mps 557 mmHg 56%
    15:00 +19°C° 0.2 mm 2 mps 556 mmHg 59%
    16:00 +19°C° 0.2 mm 2 mps 556 mmHg 61%
    17:00 +18°C° 0.2 mm 3 mps 556 mmHg 64%
    18:00 +17°C° 0 mm 3 mps 556 mmHg 69%
    19:00 +16°C° 0 mm 2 mps 555 mmHg 74%
    20:00 +14°C° 0 mm 2 mps 555 mmHg 78%
    21:00 +14°C° 0 mm 2 mps 555 mmHg 78%
    22:00 +14°C° 0 mm 2 mps 555 mmHg 78%
    23:00 +13°C° 0 mm 2 mps 556 mmHg 78%

    Day after tomorrow, 6 June, Saturday

    Time Temperature Precipitation Wind Pressure Humidity
    00:00 +13°C° 0.1 mm 2 mps 555 mmHg 78%
    01:00 +13°C° 0.1 mm 1 mps 555 mmHg 79%
    02:00 +13°C° 0.1 mm 1 mps 555 mmHg 80%
    03:00 +13°C° 0.3 mm 1 mps 555 mmHg 80%
    04:00 +13°C° 0.3 mm 1 mps 555 mmHg 79%
    05:00 +14°C° 0.3 mm 1 mps 556 mmHg 78%
    06:00 +14°C° 0.1 mm 1 mps 556 mmHg 77%
    07:00 +15°C° 0.1 mm 1 mps 557 mmHg 75%
    08:00 +15°C° 0.1 mm 1 mps 557 mmHg 73%
    09:00 +16°C° 0 mm 1 mps 558 mmHg 67%
    10:00 +19°C° 0 mm 1 mps 558 mmHg 61%
    11:00 +20°C° 0 mm 1 mps 559 mmHg 55%
    12:00 +21°C° 0.3 mm 1 mps 558 mmHg 55%
    13:00 +21°C° 0.3 mm 1 mps 558 mmHg 55%
    14:00 +21°C° 0.3 mm 2 mps 557 mmHg 54%
    15:00 +20°C° 0.1 mm 2 mps 557 mmHg 56%
    16:00 +20°C° 0.1 mm 2 mps 557 mmHg 57%
    17:00 +20°C° 0.1 mm 2 mps 556 mmHg 59%
    18:00 +18°C° 0 mm 2 mps 556 mmHg 63%
    19:00 +18°C° 0 mm 1 mps 556 mmHg 67%
    20:00 +15°C° 0 mm 1 mps 555 mmHg 71%
    21:00 +15°C° 0 mm 1 mps 555 mmHg 72%
    22:00 +14°C° 0 mm 1 mps 555 mmHg 73%
    23:00 +14°C° 0 mm 1 mps 555 mmHg 74%

    7 June, Sunday

    Time Temperature Precipitation Wind Pressure Humidity
    00:00 +14°C° 0 mm 1 mps 555 mmHg 75%
    01:00 +13°C° 0 mm 1 mps 555 mmHg 76%
    02:00 +13°C° 0 mm 1 mps 555 mmHg 77%
    03:00 +13°C° 0 mm 1 mps 554 mmHg 78%
    04:00 +13°C° 0 mm 1 mps 554 mmHg 80%
    05:00 +12°C° 0 mm 1 mps 554 mmHg 81%
    06:00 +13°C° 0 mm 1 mps 555 mmHg 77%
    07:00 +14°C° 0 mm 1 mps 556 mmHg 72%
    08:00 +16°C° 0 mm 1 mps 557 mmHg 68%
    09:00 +18°C° 0 mm 1 mps 558 mmHg 62%
    10:00 +20°C° 0 mm 1 mps 559 mmHg 57%
    11:00 +21°C° 0 mm 1 mps 559 mmHg 51%
    12:00 +22°C° 0.3 mm 1 mps 559 mmHg 51%
    13:00 +22°C° 0.3 mm 1 mps 558 mmHg 51%
    14:00 +23°C° 0.3 mm 1 mps 558 mmHg 51%
    15:00 +21°C° 0.2 mm 2 mps 558 mmHg 53%
    16:00 +21°C° 0.2 mm 2 mps 557 mmHg 55%
    17:00 +21°C° 0.2 mm 2 mps 557 mmHg 57%
    18:00 +19°C° 0 mm 2 mps 556 mmHg 62%
    19:00 +18°C° 0 mm 2 mps 556 mmHg 68%
    20:00 +16°C° 0 mm 1 mps 556 mmHg 73%
    21:00 +16°C° 0 mm 1 mps 556 mmHg 73%
    22:00 +15°C° 0 mm 1 mps 556 mmHg 73%
    23:00 +15°C° 0 mm 1 mps 556 mmHg 73%

    8 June, Monday

    Time Temperature Precipitation Wind Pressure Humidity
    00:00 +14°C° 0 mm 1 mps 555 mmHg 74%
    01:00 +14°C° 0 mm 1 mps 555 mmHg 75%
    02:00 +13°C° 0 mm 1 mps 555 mmHg 76%
    03:00 +13°C° 0 mm 1 mps 554 mmHg 75%
    04:00 +13°C° 0 mm 1 mps 554 mmHg 75%
    05:00 +13°C° 0 mm 1 mps 554 mmHg 75%
    06:00 +14°C° 0 mm 1 mps 555 mmHg 71%
    07:00 +15°C° 0 mm 1 mps 556 mmHg 67%
    08:00 +16°C° 0 mm 1 mps 558 mmHg 64%
    09:00 +19°C° 0 mm 1 mps 558 mmHg 58%
    10:00 +20°C° 0 mm 1 mps 559 mmHg 53%
    11:00 +22°C° 0 mm 1 mps 559 mmHg 47%
    12:00 +23°C° 0.1 mm 1 mps 559 mmHg 46%
    13:00 +23°C° 0.1 mm 1 mps 558 mmHg 46%
    14:00 +24°C° 0.1 mm 1 mps 558 mmHg 45%
    15:00 +24°C° 0.1 mm 2 mps 558 mmHg 47%
    16:00 +23°C° 0.1 mm 2 mps 557 mmHg 49%
    17:00 +23°C° 0.1 mm 2 mps 557 mmHg 50%
    18:00 +20°C° 0 mm 2 mps 556 mmHg 57%
    19:00 +18°C° 0 mm 2 mps 556 mmHg 64%
    20:00 +17°C° 0 mm 2 mps 555 mmHg 71%
    21:00 +16°C° 0 mm 2 mps 555 mmHg 71%
    22:00 +16°C° 0 mm 1 mps 555 mmHg 70%
    23:00 +15°C° 0 mm 1 mps 554 mmHg 69%

    9 June, Tuesday

    Time Temperature Precipitation Wind Pressure Humidity
    00:00 +15°C° 0 mm 1 mps 554 mmHg 68%
    01:00 +14°C° 0 mm 1 mps 554 mmHg 66%
    02:00 +14°C° 0 mm 1 mps 554 mmHg 65%
    03:00 +14°C° 0 mm 1 mps 553 mmHg 65%
    04:00 +13°C° 0 mm 1 mps 553 mmHg 64%
    05:00 +13°C° 0 mm 1 mps 553 mmHg 64%
    06:00 +14°C° 0 mm 1 mps 554 mmHg 61%
    07:00 +16°C° 0 mm 1 mps 555 mmHg 58%
    08:00 +18°C° 0 mm 1 mps 556 mmHg 56%
    09:00 +20°C° 0 mm 1 mps 557 mmHg 48%
    10:00 +22°C° 0 mm 1 mps 558 mmHg 41%
    11:00 +23°C° 0 mm 1 mps 558 mmHg 34%
    12:00 +24°C° 0 mm 1 mps 558 mmHg 32%
    13:00 +25°C° 0 mm 1 mps 558 mmHg 30%
    14:00 +26°C° 0 mm 2 mps 557 mmHg 28%
    15:00 +25°C° 0.1 mm 2 mps 557 mmHg 32%
    16:00 +25°C° 0.1 mm 2 mps 556 mmHg 35%
    17:00 +24°C° 0.1 mm 1 mps 556 mmHg 38%
    18:00 +21°C° 0 mm 2 mps 555 mmHg 47%
    19:00 +19°C° 0 mm 2 mps 554 mmHg 55%
    20:00 +17°C° 0 mm 2 mps 553 mmHg 63%
    21:00 +16°C° 0 mm 1 mps 553 mmHg 62%
    22:00 +16°C° 0 mm 1 mps 553 mmHg 62%
    23:00 +14°C° 0 mm 0 mps 553 mmHg 61%
    Show more